Theta_e
338 341 342 342 342 342 344 346 349 350 350 352 353 353 353 352 353 352 351 352 352 349 351 353 352 352 352 350 349 346 342 339 338
338 339 341 341 342 341 343 344 347 349 350 351 354 354 353 353 353 352 352 352 352 347 349 352 351 353 351 350 350 347 344 340 339
339 339 340 341 341 341 342 343 345 349 350 350 352 354 354 353 353 353 353 353 351 349 351 352 351 353 350 350 350 348 345 341 338
340 339 339 339 340 341 342 343 344 348 350 350 350 352 353 353 353 353 353 352 351 349 353 353 353 352 349 350 351 348 345 341 338
337 340 339 339 338 339 341 343 344 348 350 351 350 352 352 352 353 353 354 353 352 350 354 353 353 352 350 349 350 347 345 342 338
334 338 340 339 338 337 340 343 344 348 350 352 351 352 353 353 353 353 353 353 354 352 354 355 352 351 350 348 347 346 346 344 340
333 335 336 337 337 337 338 342 344 349 351 352 352 353 354 354 355 354 354 353 353 353 352 354 354 352 350 347 346 346 346 345 343
327 330 334 336 340 339 338 341 344 348 351 354 353 354 355 355 355 355 355 354 354 353 353 353 354 355 351 347 347 347 347 346 345
325 331 334 335 339 340 339 341 344 346 350 355 355 355 356 356 356 357 357 356 355 354 353 353 353 354 355 351 349 347 347 346 345
324 325 332 335 339 340 340 341 344 346 350 352 356 356 356 356 356 356 358 358 357 356 354 354 353 352 353 352 352 351 350 348 346
326 327 328 333 334 336 341 342 344 345 348 353 356 357 357 358 357 356 356 358 358 358 356 355 355 354 353 352 353 353 352 350 346
326 327 327 332 335 337 340 342 345 346 348 352 356 357 357 358 359 358 357 357 357 358 358 356 355 354 353 354 354 354 355 352 346
327 324 323 328 337 339 340 343 346 346 347 350 356 357 357 358 359 359 359 358 358 358 358 359 357 355 355 355 355 355 356 354 346
333 329 329 329 334 340 339 343 345 347 347 348 352 355 357 358 359 359 359 359 358 359 358 359 358 357 357 356 357 357 357 354 349
347 346 347 345 323 329 342 341 342 344 346 348 349 351 353 356 357 359 358 358 358 358 358 358 358 359 357 355 357 358 355 351 348
353 353 353 355 351 347 353 334 344 342 344 346 348 349 351 352 355 358 358 357 357 357 358 358 357 356 352 349 355 355 355 347 347
351 351 352 353 355 355 353 356 357 345 347 344 345 346 349 350 351 355 356 356 357 357 358 358 355 351 347 346 345 346 345 346 345
342 344 343 344 345 344 342 340 342 349 353 354 346 345 346 348 349 352 354 353 356 358 358 356 352 350 347 343 340 341 345 345 343
336 340 343 343 344 345 339 331 328 332 338 347 350 354 349 353 350 342 336 339 338 352 352 349 348 347 343 341 343 347 344 342 341
332 336 339 333 334 343 344 345 338 333 336 336 335 333 341 338 337 337 340 341 339 333 339 333 332 335 337 342 338 343 340 339 339
Wind_Speed
24 24 23 25 26 27 34 37 38 39 39 39 40 43 44 45 44 42 41 39 34 31 29 26 27 31 29 26 24 22 22 21 19
21 24 24 27 25 31 36 36 40 43 40 41 40 44 43 42 44 41 39 40 35 32 32 28 28 32 32 30 28 26 23 24 22
17 21 24 25 23 26 36 40 42 43 44 45 44 45 44 43 45 45 42 40 36 33 33 32 31 34 34 32 31 29 26 26 24
17 19 24 24 22 29 34 37 35 41 41 41 40 40 41 39 39 41 41 42 39 37 33 31 32 34 35 34 34 32 29 28 27
18 23 24 25 22 20 27 32 33 38 40 40 43 43 41 41 40 38 40 44 42 40 39 36 32 34 36 36 36 35 33 31 30
9 15 18 16 14 14 19 29 33 36 39 42 41 41 41 38 38 39 41 45 43 44 41 39 36 38 39 39 38 38 36 34 32
8 9 13 13 11 13 15 29 34 36 38 40 40 39 41 40 40 42 43 45 42 42 46 43 41 41 41 40 39 39 38 37 35
8 11 11 15 18 17 17 22 29 33 35 36 40 39 39 42 42 42 40 41 41 41 41 44 45 42 41 42 41 41 41 40 39
10 10 14 16 17 18 19 22 31 33 33 36 40 40 42 39 40 39 40 38 37 40 41 40 42 45 44 45 44 42 39 39 40
11 10 12 13 20 21 20 28 38 36 40 38 39 40 39 39 39 38 38 35 34 37 38 38 42 42 44 45 45 43 40 38 38
11 10 11 10 9 8 23 31 32 37 33 36 39 37 36 36 38 39 37 37 38 36 37 40 38 42 44 42 46 43 41 37 37
10 10 9 12 16 20 23 22 29 29 30 35 35 36 37 39 41 40 38 39 40 36 33 32 36 35 38 42 41 41 38 34 35
7 8 4 7 11 8 18 23 27 27 28 32 33 36 42 43 43 40 40 43 40 38 35 35 30 31 38 39 39 37 35 34 33
3 6 7 10 12 12 25 26 28 26 28 30 40 40 39 36 37 40 41 37 34 36 35 31 31 29 29 36 36 35 33 33 34
5 5 5 4 2 8 17 21 27 23 22 39 36 34 33 35 37 37 36 35 33 34 32 31 29 28 26 28 32 32 26 26 29
6 6 6 9 8 13 20 5 12 12 31 34 34 31 34 36 35 37 37 36 36 30 30 28 26 26 25 27 31 28 25 31 20
8 8 9 12 13 12 11 17 8 13 18 21 22 26 33 34 33 34 33 29 28 28 27 29 27 26 24 22 26 29 35 33 24
6 6 7 14 9 7 11 15 17 15 10 9 21 24 23 24 27 28 24 26 29 29 29 31 28 25 21 22 16 21 30 25 27
6 8 10 9 11 11 12 14 14 12 12 16 16 8 13 15 15 25 24 22 26 27 25 21 19 14 18 21 17 16 20 23 25
7 12 12 10 11 13 15 16 15 14 12 15 15 18 13 17 22 25 26 27 23 21 34 23 18 24 28 8 24 32 28 23 22
Wind_Direction
211 207 206 209 207 203 202 196 195 195 197 200 199 201 205 209 212 215 217 220 225 228 228 231 225 219 220 220 216 215 216 218 220
205 204 203 211 207 204 204 198 195 196 195 199 198 200 204 206 211 212 216 222 225 229 228 232 232 220 219 219 217 217 220 219 222
205 208 206 211 210 205 204 202 197 197 199 197 198 199 202 205 211 215 220 224 224 225 228 230 234 224 220 220 218 218 222 224 224
208 209 210 211 213 208 204 200 196 199 197 199 201 199 201 204 209 212 216 224 226 224 225 228 231 223 219 221 218 218 222 226 225
219 212 213 213 209 199 195 197 194 196 198 198 201 199 199 202 206 209 213 222 226 225 225 228 229 222 221 222 220 220 223 226 227
225 229 222 212 205 195 192 194 195 195 196 200 200 198 198 201 204 207 211 219 221 224 224 224 225 225 225 224 223 224 225 229 231
208 194 187 189 183 194 195 195 195 196 199 198 197 197 197 199 201 207 212 217 217 219 223 223 223 226 227 228 229 230 230 229 232
204 221 218 193 193 187 188 198 201 199 199 194 194 196 198 202 203 208 211 213 215 216 218 220 223 224 226 227 229 232 231 231 232
229 209 202 208 192 188 191 190 194 196 199 195 191 196 202 200 203 205 209 212 211 214 218 216 221 223 225 226 229 233 235 236 234
224 226 207 194 196 195 197 194 193 194 193 190 193 198 201 200 201 204 208 208 209 211 210 211 218 219 221 225 231 233 236 239 237
218 224 201 198 208 223 208 202 198 196 192 189 192 199 201 201 200 204 204 205 209 211 208 209 209 215 219 223 232 237 240 239 237
225 222 218 203 199 205 204 195 195 191 189 190 193 196 199 201 201 203 201 203 208 209 208 208 210 210 214 224 233 236 237 236 228
207 216 239 233 221 214 182 192 182 185 190 189 197 199 203 203 202 204 202 206 206 206 206 209 206 204 219 228 230 234 236 233 222
188 164 197 229 200 191 204 186 178 187 189 200 205 205 207 204 203 205 208 206 203 200 202 202 202 202 210 222 227 231 233 227 218
44 24 51 29 213 220 219 193 184 193 197 210 208 208 202 202 204 204 203 201 202 200 196 195 196 194 203 210 221 226 225 222 222
55 39 44 43 63 64 41 354 232 234 222 213 208 204 204 202 202 202 201 196 192 193 188 188 194 191 191 189 206 208 207 199 195
49 41 40 38 44 49 64 53 36 265 277 257 234 217 208 205 195 196 195 193 189 187 194 187 184 184 187 183 187 188 183 170 165
46 53 43 53 54 41 26 35 49 50 21 297 239 222 223 214 199 185 175 178 187 186 193 189 180 186 174 148 141 179 183 159 174
39 39 42 49 49 40 20 3 353 3 26 41 38 327 212 174 158 148 142 129 111 154 158 157 153 164 168 147 186 190 193 185 186
28 36 40 38 33 25 25 15 8 358 350 355 359 32 24 120 127 130 125 118 118 108 109 114 114 156 155 234 185 207 187 183 183